Regional Weather Roundup
Issued by NWS Albany, NY

Home | Current Version | Previous Version | Text Only | Print | Product List | Glossary On
Versions: 1 2 3 4 5 6 7 8 9 10 11 12 13 14 15 16 17 18 19 20 21 22 23 24 25 26 27
000
ASUS41 KALY 281210
RWRALY

NEW YORK STATE HOURLY WEATHER ROUNDUP
NATIONAL WEATHER SERVICE ALBANY NY
800 AM EDT WED JUN 28 2017

NOTE: "FAIR" INDICATES FEW OR NO CLOUDS BELOW 12,000 FEET WITH NO
SIGNIFICANT WEATHER AND/OR NO OBSTRUCTIONS TO VISIBILITY.

NYZ032-033-038>043-046>054-057>066-NYZ062>081-082-084-281300-
EAST


CITY           SKY/WX    TMP DP  RH WIND       PRES   REMARKS
ALBANY         MOSUNNY   62  52  69 W5        30.07R
GLENS FALLS    SUNNY     57  53  86 SW3       30.05R
POUGHKEEPSIE   SUNNY     60  52  74 SW5       30.09R
NEWBURGH       SUNNY     59  54  82 W7        30.12R
MONTGOMERY       N/A     62  53  72 NW6       30.10S
WHITE PLAINS   SUNNY     63  52  67 W10       30.10R
ISLIP          MOSUNNY   66  54  65 NW13      30.08R
NEW YORK CITY  MOSUNNY   65  54  67 NW13      30.09R
CENTRAL PARK   SUNNY     63  51  65 W8        30.13R
$$

NYZ005>009-017-018-044>046-055-056-281300-
CENTRAL


CITY           SKY/WX    TMP DP  RH WIND       PRES   REMARKS
FULTON         PTSUNNY   60  54  80 SW8       30.08R
SYRACUSE       MOSUNNY   61  55  81 W9        30.07S
ROME           SUNNY     57  54  89 NW3       30.09R
ELMIRA         MOSUNNY   58  49  72 SW9       30.12R
BINGHAMTON     MOSUNNY   53  49  86 W8        30.11R
MONTICELLO     SUNNY     54  52  94 NW6       30.14R
$$

NYZ026>034-041>043-087-281300-
NORTH


CITY           SKY/WX    TMP DP  RH WIND       PRES   REMARKS
WATERTOWN      PTSUNNY   62  54  74 S7        30.05R
FORT DRUM      NOT AVBL
OGDENSBURG     FAIR      58  55  88 SW5       30.02S
MASSENA        MOSUNNY   59  54  83 SW9       30.02R
SARANAC LAKE   SUNNY     55  51  86 VRB5      30.02R
PLATTSBURGH    MOSUNNY   59  54  83 CALM      30.00R
$$

NYZ001>004-010>016-019>021-085-281300-
WEST


CITY           SKY/WX    TMP DP  RH WIND       PRES   REMARKS
NIAGARA FALLS  SUNNY     66  55  67 W9        30.07S
BUFFALO        MOSUNNY   62  50  64 SW8       30.08S
DUNKIRK        SUNNY     62  51  67 S9        30.09F
JAMESTOWN      SUNNY     55  45  67 SW8       30.12S
WELLSVILLE     MOSUNNY   57  44  62 W9        30.15R
ROCHESTER      PTSUNNY   58  54  86 SW5       30.09R
PENN YAN       SUNNY     60  50  69 SW8       30.11R
$$

             KEY
       WCI = WIND CHILL INDEX
       VSB = VISIBILITY
       HX  = HEAT INDEX
$$




USA.gov is the U.S. government's official web portal to all federal, state and local government web resources and services.